Theta_e
341 343 344 344 342 339 341 340 339 341 341 340 340 340 339 341 342 342 345 345 345 345 345 345 344 343 343 342 341 340 337 333 329 328 335 342 343 344 344 344 343 343 342 342 342 341 341 341 341 340 340 339 338 338 338 336 335 335 335 335 337 340 342 343 343 343 343 342 341 338 336 335 336 336 336 338 340 339 338 338 338 341 342 340 339
341 342 343 344 344 342 341 341 340 340 342 341 340 339 338 339 340 341 343 344 345 345 345 344 343 343 343 343 342 340 333 326 326 332 339 343 344 344 344 344 343 342 342 342 342 340 340 340 341 341 340 340 340 340 340 338 335 333 334 335 335 337 339 340 340 340 340 340 338 336 334 328 325 324 325 329 335 338 338 339 339 342 342 339 339
341 341 341 343 344 343 342 341 340 340 341 341 340 339 339 339 339 340 342 344 344 345 344 343 344 343 343 343 343 340 334 331 333 338 342 344 344 344 344 344 343 342 342 342 342 341 340 340 342 342 342 342 342 342 341 339 337 334 332 333 334 336 336 336 336 337 337 338 338 339 339 334 328 322 320 321 327 333 336 338 338 340 339 337 339
342 340 341 344 343 344 343 341 341 341 341 340 340 339 340 340 340 339 341 343 343 343 343 344 344 343 343 344 343 340 337 337 340 342 344 345 344 344 344 343 342 342 342 343 342 341 341 341 342 343 343 343 342 342 341 340 340 337 334 334 335 336 337 337 336 337 338 340 341 342 344 344 340 331 324 320 321 324 329 332 333 336 335 334 337
342 339 341 344 343 344 344 342 343 343 341 340 339 339 340 341 341 340 340 342 343 343 344 345 345 343 343 344 344 342 339 340 342 343 344 345 345 344 343 342 342 342 342 343 342 342 342 341 342 342 343 343 342 342 342 340 338 336 334 334 335 335 337 338 338 339 340 341 342 344 344 345 345 341 333 325 321 320 321 323 324 328 330 332 334
341 339 340 343 343 343 342 343 344 343 343 343 341 341 342 342 343 342 341 343 343 343 344 345 345 345 344 344 343 342 341 341 343 343 344 344 344 344 343 343 342 342 343 343 342 342 341 342 342 342 343 342 341 341 340 337 334 332 332 332 332 332 333 334 337 338 339 341 343 344 344 344 345 345 341 334 327 322 320 319 319 323 328 334 337
340 339 340 341 342 342 341 344 345 344 344 345 345 345 345 344 344 344 343 343 343 344 344 345 345 345 345 343 343 343 342 341 342 344 344 344 344 344 344 343 343 343 343 342 342 342 341 342 342 343 343 342 341 340 337 335 332 331 330 330 329 330 331 331 333 335 338 341 342 343 344 344 345 345 344 341 336 329 323 321 319 319 324 331 336
340 340 340 340 341 342 341 343 343 343 344 344 345 345 345 345 344 344 344 343 343 344 345 345 345 345 345 344 343 343 342 341 341 343 344 344 344 345 344 344 342 342 343 342 341 341 341 342 343 343 343 343 342 340 337 334 332 331 330 329 327 328 329 329 330 332 335 338 340 341 341 343 344 345 344 343 342 337 331 326 322 319 320 323 327
340 341 340 341 342 342 342 343 341 341 342 341 341 342 343 344 344 344 344 345 345 345 345 345 345 345 345 343 343 343 342 341 340 342 344 344 344 344 344 343 342 342 343 342 342 342 342 342 342 344 344 343 342 342 339 335 332 331 330 329 327 327 327 328 328 330 334 336 338 339 338 341 344 344 343 343 343 342 339 335 330 323 320 320 323
340 341 340 342 343 343 343 342 341 341 340 339 339 339 339 341 343 344 344 345 345 344 345 344 344 345 344 342 342 343 343 342 340 340 343 344 344 345 344 343 343 343 342 341 341 342 342 342 342 343 343 343 342 343 342 336 331 330 331 331 330 328 328 328 328 329 332 334 335 336 334 338 343 343 343 342 342 343 342 341 339 333 326 323 322
341 341 340 341 342 341 340 340 341 341 340 340 341 341 339 339 340 341 343 344 344 344 345 344 344 344 343 342 342 343 343 343 341 339 341 343 344 344 344 343 342 342 342 342 341 340 340 341 342 343 343 343 341 342 342 335 331 333 333 334 332 330 329 329 329 328 330 331 332 333 332 335 339 340 341 341 341 342 342 341 341 341 337 332 327
340 340 339 339 340 340 340 341 342 342 341 341 342 343 342 341 340 340 342 343 343 344 344 344 344 344 343 341 342 343 343 343 342 339 340 343 343 343 343 343 342 343 343 342 341 340 339 339 341 341 340 340 339 340 339 334 334 336 336 336 334 331 331 330 330 328 329 330 331 331 332 335 336 336 338 339 340 341 340 340 340 341 341 340 337
339 338 336 337 341 343 343 343 344 344 342 342 342 342 343 343 343 342 343 343 344 344 344 344 344 345 343 342 343 343 343 343 340 338 341 344 343 343 343 343 343 343 343 342 340 339 338 338 340 339 337 336 336 337 337 336 338 338 337 336 334 333 333 331 329 328 328 328 329 330 330 333 333 331 334 336 339 340 339 339 339 339 341 341 341
337 335 333 338 343 343 343 343 344 344 343 343 342 341 341 343 343 344 344 343 344 344 343 344 344 344 343 343 343 343 343 342 339 339 343 344 344 343 343 344 344 343 341 341 340 338 337 337 338 337 335 335 335 336 338 339 339 339 339 338 336 335 335 332 329 327 327 326 326 327 327 328 328 326 329 332 334 336 336 337 337 337 339 340 340
334 332 334 340 344 343 342 342 343 343 343 343 342 341 341 342 342 343 344 343 343 344 343 343 343 342 341 342 342 343 343 340 339 341 343 344 344 344 344 345 344 343 341 339 338 336 336 336 336 336 335 335 335 338 341 341 340 340 340 339 337 336 336 334 331 328 326 325 324 324 324 324 325 325 325 327 328 328 330 331 333 333 333 336 338
331 333 338 342 345 344 343 343 343 343 343 343 342 342 342 342 342 343 343 340 341 343 342 342 342 342 341 342 342 343 343 340 341 343 343 343 344 344 345 345 344 342 339 337 335 335 334 334 334 335 336 337 337 340 342 341 341 341 341 339 338 336 334 333 331 327 326 324 324 324 325 326 327 328 328 329 329 328 328 328 330 329 328 331 332
333 338 341 343 345 345 344 344 344 344 343 343 343 342 343 343 342 343 342 340 340 342 342 342 341 342 342 342 342 343 342 341 342 343 343 344 343 344 344 344 343 340 336 334 334 333 332 331 333 335 338 340 340 341 342 342 341 341 342 339 337 335 332 332 329 326 327 326 327 328 330 332 332 333 334 335 335 334 334 334 334 332 329 328 328
337 341 341 343 344 344 344 344 343 343 343 343 343 343 344 344 343 343 341 341 341 341 341 342 342 342 342 343 342 341 342 342 342 343 344 344 343 344 343 342 340 335 332 332 331 330 329 331 335 338 341 341 341 342 342 342 342 341 341 339 337 334 332 331 328 327 330 330 332 334 335 336 336 337 339 340 340 341 341 341 341 339 336 334 334
339 341 342 342 343 344 344 343 343 343 343 343 343 344 345 344 343 343 342 341 341 341 341 341 341 342 342 342 341 340 341 342 343 343 344 344 343 342 342 341 336 329 328 328 327 327 329 335 340 342 341 341 341 343 343 342 341 341 339 337 336 334 333 332 329 331 335 336 337 338 339 338 337 339 341 342 342 342 343 343 343 343 342 342 342
339 341 341 342 343 344 344 344 344 344 344 344 343 344 345 344 342 342 342 341 341 341 340 341 342 341 341 341 341 341 340 341 343 343 344 343 342 340 339 338 331 325 325 326 327 329 335 340 343 343 341 341 342 343 343 342 341 340 338 336 335 334 333 332 332 336 338 339 340 340 339 337 335 337 340 342 343 342 342 342 343 344 344 345 345
339 341 341 342 344 344 344 344 344 344 344 344 344 344 344 344 343 343 342 342 341 340 340 341 342 341 341 342 341 340 341 342 343 343 343 342 340 336 334 331 326 324 325 327 331 336 340 343 343 343 342 342 343 342 342 341 340 339 337 335 335 335 333 332 336 339 341 341 340 340 338 335 332 332 335 339 342 342 341 341 342 344 345 345 345
341 342 342 343 344 344 344 343 343 343 343 343 343 344 344 343 344 343 342 342 341 340 340 341 341 340 340 341 341 340 342 343 343 343 342 340 335 331 328 326 325 326 329 332 337 341 343 343 343 343 342 342 342 341 340 339 338 337 336 336 335 334 334 336 339 339 340 340 339 338 337 334 330 328 330 334 339 340 339 341 343 344 345 344 343
344 344 344 344 344 343 343 342 342 342 341 341 342 343 344 344 344 343 342 342 341 340 341 341 341 341 341 341 341 342 342 342 342 342 339 337 333 328 326 326 327 330 333 337 341 342 343 343 343 343 342 342 342 340 339 338 337 336 336 337 336 336 337 338 339 339 339 339 339 339 337 335 333 330 328 329 335 338 338 339 341 342 344 345 343
345 345 344 343 342 342 342 342 342 342 342 341 342 343 344 344 345 343 342 342 341 341 341 342 342 342 342 341 342 342 342 342 340 338 337 337 335 331 328 328 330 333 336 340 342 342 343 343 343 342 342 342 341 340 338 337 336 336 338 339 338 338 338 339 340 341 341 341 341 341 340 340 338 334 329 328 331 336 338 339 340 341 343 345 345
345 345 344 342 341 341 341 343 343 342 342 342 343 344 344 344 344 344 342 342 342 342 341 342 342 342 343 342 342 342 342 342 339 337 337 338 336 331 329 331 332 335 338 341 342 343 343 343 342 341 341 341 341 339 339 337 335 337 341 341 340 340 341 342 343 344 344 343 344 344 344 344 342 339 333 330 328 330 334 338 341 341 341 340 341
344 343 343 342 340 340 342 343 343 343 343 343 344 344 343 344 344 343 342 342 342 342 342 342 342 343 343 343 343 342 341 340 339 338 336 336 333 330 331 334 336 338 341 342 343 343 343 343 342 342 341 341 340 340 339 337 335 338 342 342 342 343 345 346 346 347 346 345 345 346 346 346 345 342 339 335 330 326 326 329 333 337 339 337 334
343 341 341 341 340 341 342 343 343 343 344 344 344 344 343 344 344 343 342 342 342 342 342 342 343 343 343 344 343 342 340 339 338 337 335 333 332 332 336 338 340 341 343 344 343 343 343 343 342 342 341 340 340 341 340 339 337 338 342 343 344 344 345 346 347 348 347 346 345 346 347 347 347 345 343 340 334 329 326 324 325 329 333 333 331
342 340 340 340 340 341 342 343 344 343 344 344 344 344 343 343 343 343 343 342 342 343 342 343 343 343 343 343 341 340 339 338 337 336 333 332 333 336 340 341 342 342 343 343 343 343 343 343 342 342 341 341 341 341 341 341 339 337 338 341 343 345 345 345 346 347 347 345 344 345 347 348 348 346 344 342 339 335 330 327 325 324 326 328 329
341 340 339 339 340 341 340 342 344 344 344 344 344 344 343 343 344 344 343 343 343 343 343 343 343 343 342 341 339 339 338 337 336 334 332 333 337 341 342 343 343 343 343 343 342 342 342 343 342 342 342 341 342 342 342 342 341 340 340 341 343 345 346 346 345 346 346 345 343 343 346 347 347 346 344 343 341 339 336 332 329 327 325 325 326
340 339 339 338 340 341 340 342 343 343 343 343 343 343 343 343 344 344 343 342 343 343 343 343 342 342 341 339 339 339 338 337 335 332 331 334 339 341 343 344 343 343 343 342 341 341 342 342 342 341 341 341 341 342 342 342 342 343 343 343 343 344 345 346 346 345 345 345 343 343 344 346 346 345 344 343 342 341 340 338 336 334 330 327 325
339 339 338 338 340 340 341 343 343 343 343 342 342 342 343 343 343 344 343 342 343 343 343 342 341 340 339 339 339 339 338 336 334 332 332 336 340 343 343 343 343 343 342 341 341 341 342 341 341 341 341 341 340 341 341 341 342 342 343 343 343 343 344 344 345 345 345 345 344 343 343 344 344 344 343 343 343 343 342 342 342 341 338 334 330
338 338 337 338 340 340 342 344 343 342 342 342 342 342 342 342 343 343 342 342 342 342 341 340 339 339 339 339 339 338 337 336 335 333 334 339 343 344 343 343 343 342 342 341 341 341 341 341 341 341 340 341 341 341 341 341 341 343 343 343 343 343 343 343 344 345 345 345 345 343 343 343 342 343 343 343 343 344 345 345 345 345 344 342 338
339 338 337 339 340 340 342 344 343 342 342 342 342 341 341 341 341 341 340 340 340 340 340 339 339 340 339 338 338 337 337 337 336 336 337 341 344 343 343 343 343 342 342 341 341 341 341 341 341 340 340 341 341 342 341 341 341 343 343 343 343 342 342 342 343 344 344 344 344 343 343 342 340 342 343 343 344 345 345 345 346 346 347 347 346
339 337 338 340 338 338 342 344 343 342 342 342 342 341 339 339 340 339 339 339 339 339 339 339 339 339 338 338 337 337 337 337 338 338 340 342 343 342 342 342 342 343 342 341 341 340 340 340 340 340 341 342 342 342 341 341 341 342 342 342 342 341 342 342 343 344 344 343 343 343 343 341 339 341 343 344 344 345 345 345 346 346 347 349 349
338 338 340 340 337 337 340 343 343 342 342 342 341 341 339 339 339 338 338 338 338 339 339 339 339 338 337 337 337 337 337 337 338 340 341 341 341 341 341 342 342 343 342 342 340 340 340 340 339 340 341 342 342 342 342 341 341 342 341 341 341 341 341 342 343 343 343 343 343 343 343 341 338 340 343 343 343 343 344 345 346 346 347 349 350
338 339 341 341 338 337 338 341 342 343 343 342 341 341 339 338 339 338 338 338 338 339 339 338 337 337 337 337 336 336 336 337 338 340 340 341 341 342 343 343 343 343 343 342 340 339 340 339 340 341 342 343 343 342 342 341 341 341 341 341 341 341 341 342 342 343 343 343 343 343 342 340 338 341 342 342 342 342 343 345 345 346 346 348 349
339 340 341 341 339 336 337 339 340 341 342 342 341 341 340 339 338 338 338 338 338 338 338 337 336 336 336 336 336 336 336 337 338 339 340 341 342 343 344 344 343 343 343 342 340 339 338 338 340 341 342 342 342 342 341 341 340 340 342 342 341 341 341 341 342 342 343 343 343 343 341 339 339 340 341 340 341 341 343 344 345 346 346 346 347
340 340 341 341 339 337 337 339 339 339 340 341 340 340 340 339 338 337 337 337 338 338 337 336 336 335 335 335 335 335 336 337 338 339 340 342 343 344 344 343 343 344 344 342 341 339 337 338 340 341 342 342 343 341 340 340 340 340 342 341 340 341 341 341 341 342 342 342 343 342 341 339 338 339 339 340 341 341 342 343 345 346 345 345 346
341 341 342 342 340 337 337 338 338 337 337 339 340 340 339 339 338 336 336 336 336 337 336 336 336 335 335 335 335 335 337 338 338 340 342 344 344 344 343 342 343 344 343 343 342 341 339 339 340 341 343 343 343 342 340 339 340 340 341 340 340 340 340 340 341 341 341 342 343 343 342 341 340 340 340 341 342 342 343 343 344 345 345 345 345
343 342 342 342 340 338 337 338 337 336 335 336 339 339 338 338 337 335 335 335 335 336 336 335 336 336 336 337 338 339 340 341 342 343 344 344 343 342 342 342 344 343 343 344 344 343 341 340 340 341 342 343 343 342 340 339 339 339 338 339 339 340 340 340 340 341 341 341 342 343 343 343 342 342 342 343 343 343 343 344 344 345 345 345 345
344 343 343 342 341 338 337 338 338 335 334 335 337 338 337 336 336 335 334 334 334 335 334 335 336 337 338 340 341 342 343 344 344 345 344 342 341 342 342 343 344 344 344 344 344 344 343 341 341 341 343 343 343 343 341 339 339 340 338 338 338 339 340 340 340 340 341 341 341 342 343 343 343 343 343 343 343 344 344 344 344 345 345 345 345
344 343 343 342 341 339 337 338 338 337 336 336 337 337 337 336 336 335 334 333 334 334 334 336 338 340 341 343 343 343 344 344 345 345 343 342 342 342 343 344 345 344 344 345 344 344 344 343 341 341 343 343 343 343 341 340 340 340 339 337 337 339 340 339 340 340 341 341 341 341 342 343 343 343 343 343 343 344 344 344 344 345 345 345 346
344 343 343 342 341 340 338 337 337 337 337 337 338 338 338 338 337 337 336 336 335 336 337 339 341 342 343 344 344 344 344 344 345 344 343 343 343 343 344 344 346 346 345 345 344 343 343 343 343 342 343 343 343 342 341 341 340 339 340 340 339 340 341 339 339 340 340 341 341 341 341 341 342 342 342 343 343 343 344 345 344 345 345 345 345
344 343 343 342 341 340 338 337 337 337 337 337 337 339 340 340 340 339 339 339 339 340 341 341 342 342 343 343 344 344 344 345 345 345 344 343 342 343 344 344 345 347 345 344 344 344 344 344 344 343 343 344 344 343 342 342 339 339 342 342 340 340 343 341 340 340 339 340 340 340 341 341 342 342 341 341 343 343 343 344 345 344 345 346 346
344 343 342 342 342 340 339 338 337 337 337 337 337 338 340 342 342 342 341 341 342 342 342 342 341 341 342 342 342 342 343 344 345 345 345 344 342 342 342 342 344 345 344 343 344 345 344 345 345 344 344 345 345 344 344 342 340 340 342 342 342 343 344 342 341 340 339 339 339 339 340 341 341 341 339 339 341 342 342 343 344 344 345 345 346
344 344 342 342 342 340 339 338 338 337 337 338 338 339 340 341 342 342 341 341 341 341 340 340 340 340 341 341 341 341 342 343 344 344 345 345 343 342 342 341 342 343 342 342 345 346 345 345 345 346 346 346 345 345 345 344 342 343 342 342 343 342 342 341 341 341 339 338 338 339 340 340 340 340 339 339 340 341 341 341 343 344 345 345 345
345 344 343 342 342 341 339 339 338 338 337 338 340 341 341 341 340 339 339 339 339 338 338 338 339 340 340 340 340 341 342 342 343 344 345 345 344 343 342 342 342 342 341 342 346 347 346 346 345 346 348 346 346 346 346 345 345 344 343 342 342 341 341 340 340 341 340 339 339 339 339 339 339 339 339 339 340 340 340 341 342 343 344 345 345
345 345 343 342 342 341 340 339 339 338 338 339 341 342 341 340 339 337 336 337 337 337 338 338 338 338 339 339 339 340 341 342 342 343 344 344 343 342 342 343 343 342 341 343 347 347 346 346 345 345 347 347 347 346 346 346 345 344 343 342 342 341 341 340 340 339 340 341 340 338 339 339 339 340 340 340 340 340 340 341 342 343 344 344 344
345 345 344 343 342 341 340 340 340 339 339 339 340 342 340 339 338 337 337 338 339 339 340 340 339 338 338 339 339 339 340 341 341 342 343 343 343 343 342 343 343 342 341 343 347 348 347 346 345 345 346 347 347 347 346 346 346 345 344 343 342 342 342 342 341 340 340 341 342 341 340 340 341 340 340 341 341 340 341 341 342 343 344 344 344
345 344 345 344 342 341 341 340 341 340 340 340 340 341 340 338 337 338 339 340 341 342 342 342 342 341 340 339 340 340 339 339 340 341 342 343 344 344 343 343 342 342 342 344 347 348 348 347 346 344 345 345 347 347 347 346 346 345 344 344 343 343 342 343 343 343 343 342 344 343 341 341 343 343 342 342 342 342 342 342 343 344 344 345 345
345 345 346 345 344 342 341 341 341 341 341 341 341 342 340 337 337 339 341 343 343 344 344 344 344 344 343 340 340 341 340 339 339 340 341 342 343 344 343 343 343 342 342 344 347 348 348 348 347 344 344 344 344 346 347 347 347 346 345 344 344 344 343 343 343 343 344 344 344 343 342 341 343 345 344 342 342 343 343 342 343 344 345 345 345
Wind_Speed
19 17 16 15 16 15 13 13 13 13 12 11 9 9 9 10 11 11 11 12 12 12 13 14 14 13 14 14 14 13 13 13 15 17 18 18 18 18 18 17 17 17 17 17 17 17 17 16 16 15 15 15 14 15 15 14 14 13 13 13 12 13 13 13 13 12 11 11 11 11 10 9 9 8 8 7 7 7 6 7 7 6 6 5 5
20 19 17 16 15 14 13 12 11 11 11 12 11 11 11 10 10 10 10 11 12 12 13 13 13 13 14 14 15 14 15 16 18 19 19 18 18 18 17 17 17 17 17 17 17 17 17 16 15 14 14 14 14 15 15 15 15 14 13 13 13 12 12 12 11 11 11 11 11 11 11 10 10 9 8 7 6 6 6 6 7 6 4 4 5
20 19 18 16 15 14 13 12 11 10 10 12 13 13 12 12 11 11 11 11 11 11 12 12 12 13 14 15 15 16 17 18 19 19 18 18 18 17 17 17 17 17 17 18 17 16 16 15 14 13 13 14 14 14 15 15 15 15 14 13 13 13 13 12 11 11 11 11 10 10 11 11 11 11 11 9 7 5 5 5 5 5 3 3 4
18 18 17 15 15 15 13 12 11 10 10 11 13 13 12 12 11 11 11 11 11 11 12 12 12 13 13 15 16 17 17 18 18 18 17 17 18 17 17 17 17 18 18 17 16 15 15 14 13 13 13 14 14 14 14 14 14 15 14 14 13 13 13 12 11 11 11 10 10 10 10 10 11 12 12 11 9 7 5 4 4 3 3 3 4
17 17 17 15 14 14 14 13 12 11 10 11 12 12 10 10 10 10 10 11 11 11 12 12 12 13 14 14 16 17 18 18 17 16 16 16 17 16 17 17 17 18 17 17 15 14 14 13 12 13 14 14 14 14 13 14 14 15 14 14 13 12 12 11 11 10 10 10 10 10 10 10 10 12 13 12 11 10 8 7 5 4 4 4 5
17 17 16 15 14 14 14 14 13 12 11 12 13 12 11 11 11 11 11 11 10 10 11 12 12 13 14 14 15 16 17 16 16 15 15 16 16 16 16 17 17 18 17 16 14 13 13 13 13 13 15 15 14 14 14 14 15 15 14 14 13 12 12 11 11 10 10 10 10 10 10 10 9 10 12 13 12 11 10 9 8 7 6 6 6
17 17 16 16 15 14 15 14 13 12 12 12 12 12 13 13 13 12 13 12 10 10 10 12 12 13 13 13 14 15 15 15 15 15 15 15 15 15 16 16 16 17 16 14 13 13 13 13 13 14 14 14 14 15 16 16 15 14 14 13 13 13 13 12 12 11 11 10 9 9 9 9 9 9 10 11 11 10 9 9 9 8 7 5 5
17 17 16 17 15 15 14 13 12 12 11 11 10 10 11 12 12 13 13 12 11 10 10 11 12 12 13 13 13 14 13 13 13 14 14 15 15 15 15 16 16 16 15 13 12 12 13 13 12 13 14 14 14 15 16 16 15 14 13 13 13 14 13 13 12 12 11 10 9 8 8 8 8 8 8 9 9 8 8 8 8 7 7 6 4
18 17 17 16 15 14 13 12 12 11 10 10 9 9 9 10 10 11 12 12 11 10 10 10 11 12 13 12 12 13 13 13 13 13 13 14 14 14 14 14 15 15 14 13 12 12 12 12 12 13 13 13 14 14 15 16 15 14 13 14 15 15 14 14 13 12 11 9 9 8 7 7 7 7 7 8 7 7 7 7 7 6 6 5 5
18 17 17 15 14 13 12 11 10 10 9 9 9 9 9 9 9 9 10 10 11 10 10 10 10 11 11 12 11 12 12 12 13 12 12 13 13 14 14 14 14 14 13 12 11 11 11 11 11 12 12 12 13 13 14 16 15 15 15 15 16 16 16 15 13 12 11 9 8 7 7 7 6 6 6 7 6 5 6 6 5 5 5 5 5
17 17 17 15 14 12 11 10 9 8 8 8 8 8 9 9 9 9 8 9 10 10 10 9 9 10 10 11 11 11 12 12 12 12 13 12 12 13 13 13 13 13 13 12 11 11 11 11 11 11 11 12 12 12 14 15 15 16 16 16 16 16 16 16 15 13 11 9 8 7 8 8 6 4 4 5 5 5 5 4 4 4 4 4 4
16 16 16 15 13 11 10 9 8 8 7 7 7 8 8 9 10 9 8 8 9 9 10 10 9 10 10 11 10 10 11 10 10 11 13 12 12 13 13 13 12 12 12 11 10 10 10 11 11 11 11 11 11 12 13 15 15 15 16 17 16 16 17 17 16 14 11 9 9 8 8 8 5 3 3 3 4 4 4 3 3 4 4 3 3
16 15 15 14 11 10 10 9 8 7 7 6 7 7 7 8 9 9 9 9 9 9 9 10 10 10 10 10 10 10 10 9 10 12 14 12 12 13 13 12 12 12 11 10 10 9 10 10 11 11 11 11 12 12 13 14 14 15 15 16 16 16 17 17 16 14 12 10 9 9 8 7 4 2 2 2 2 2 3 3 3 3 2 2 2
15 14 13 12 9 8 8 8 7 7 7 6 7 7 7 7 9 10 9 9 9 9 9 9 9 10 10 10 10 9 9 9 11 13 13 12 12 13 12 12 11 11 10 9 9 9 9 9 10 11 11 11 12 13 14 14 15 15 15 15 15 17 16 15 16 15 12 11 9 9 8 6 4 3 2 1 0 1 1 2 3 3 2 2 1
13 13 12 10 8 8 7 7 7 7 7 6 7 8 8 7 8 10 10 10 10 9 9 9 9 10 10 10 11 9 9 10 13 14 12 11 12 12 12 11 11 10 10 9 9 9 8 8 9 10 11 12 13 14 15 15 16 16 16 15 14 16 16 13 14 15 13 12 10 10 9 7 6 5 4 2 1 3 3 4 4 4 3 3 3
12 11 11 9 7 7 7 7 7 7 6 7 7 7 8 7 7 9 10 11 10 10 9 9 9 9 10 10 11 10 10 11 13 13 11 11 11 11 11 10 10 10 10 9 9 9 8 8 9 10 12 13 13 13 13 14 15 15 15 15 14 15 16 13 12 14 13 12 11 10 9 8 8 8 7 6 4 2 2 3 3 4 4 4 4
10 9 8 8 7 7 7 6 6 6 6 6 6 7 7 7 7 7 8 10 10 9 9 9 9 9 9 10 11 10 10 11 12 11 11 11 11 11 10 10 9 9 10 9 9 8 8 8 10 11 13 13 13 12 12 13 14 15 15 15 14 14 15 14 13 14 13 12 12 11 10 9 9 9 10 9 8 7 6 7 6 5 4 3 4
8 7 7 7 7 7 6 6 5 5 5 5 5 6 6 6 6 6 6 8 9 9 9 9 9 9 9 11 10 10 11 11 10 10 10 10 10 10 9 9 9 9 9 9 8 7 8 9 11 12 13 13 13 12 12 13 13 14 14 14 14 15 14 13 13 13 13 13 12 11 10 10 9 10 11 10 9 9 8 8 7 6 5 5 5
7 7 6 6 6 6 6 6 6 5 5 5 5 5 4 5 5 6 7 8 9 9 10 10 10 10 10 11 11 11 11 10 10 9 9 9 9 9 9 9 9 9 9 9 8 8 9 11 12 13 14 14 13 12 12 13 13 13 14 14 14 14 13 12 12 13 14 14 13 11 10 10 10 10 10 10 10 11 9 8 7 5 5 5 6
7 8 7 6 6 6 6 5 5 4 4 4 4 4 4 5 5 6 8 9 9 10 11 11 12 11 11 11 11 12 12 10 10 9 9 8 8 8 8 9 9 9 9 10 10 10 11 12 13 13 13 13 12 12 12 12 13 13 14 14 14 13 12 11 11 13 14 14 13 12 11 11 11 11 10 9 10 11 10 9 6 5 4 5 5
8 8 8 7 7 6 6 5 5 4 4 4 4 3 3 4 5 7 9 10 11 11 12 12 13 12 12 12 13 13 12 10 10 10 9 7 7 9 10 10 10 11 11 12 12 12 12 13 13 13 12 11 11 11 12 12 13 13 13 14 13 12 11 11 11 13 14 15 14 13 12 12 13 13 11 10 9 10 10 8 6 5 5 6 6
8 8 8 8 6 5 5 5 5 5 5 4 4 3 3 4 6 8 9 11 12 13 13 13 14 14 13 13 14 14 12 11 10 10 9 7 9 11 12 12 12 13 13 13 13 13 12 13 12 12 11 10 10 11 12 12 13 13 13 13 12 11 11 11 12 13 15 15 14 13 13 13 14 15 14 12 11 11 10 8 6 6 7 8 8
7 7 7 7 6 5 5 5 5 5 5 5 4 5 5 6 7 9 10 11 12 13 14 14 14 14 13 13 14 14 13 12 11 10 10 10 12 14 15 14 14 14 14 14 13 12 11 11 11 11 10 9 10 11 12 12 13 13 13 12 12 11 12 12 13 15 16 16 16 15 14 15 15 17 17 15 14 12 11 9 8 9 9 9 10
6 6 6 6 6 6 5 5 4 4 5 5 6 6 6 8 9 10 11 11 12 13 14 14 15 14 13 14 15 15 14 12 11 11 12 12 13 15 16 15 15 14 14 14 13 11 10 10 10 10 9 9 9 11 11 12 12 13 13 13 13 13 13 15 16 17 18 18 17 16 16 16 17 18 18 18 18 15 12 10 9 10 10 10 11
5 5 5 5 5 5 4 4 4 5 5 6 7 6 7 9 10 11 12 13 13 14 15 16 15 14 14 15 15 15 14 12 12 12 13 14 15 17 17 15 15 14 13 13 11 10 9 9 9 9 9 9 9 11 11 11 12 13 15 15 15 15 16 17 18 19 20 20 19 18 18 18 18 19 19 20 21 20 16 12 10 9 9 10 11
5 5 5 5 5 4 4 4 5 6 6 7 7 7 8 9 11 12 13 14 15 15 16 16 16 15 15 15 15 15 13 12 12 13 14 15 17 18 16 15 14 13 13 11 10 9 9 9 9 9 8 9 10 11 11 12 11 12 14 15 15 16 17 18 18 19 20 20 20 19 19 19 19 19 19 19 21 23 22 20 17 13 10 10 12
5 5 6 5 5 5 5 5 5 6 6 7 8 8 8 10 12 13 14 15 16 17 17 16 15 14 14 15 15 14 13 13 13 14 15 17 18 17 16 15 14 13 12 10 9 8 8 8 8 8 8 9 10 11 11 11 10 10 11 13 13 14 14 15 16 18 19 19 19 19 20 20 19 19 19 19 20 22 23 23 22 19 16 14 14
6 7 7 6 6 6 6 6 6 7 7 8 9 10 10 11 13 14 15 15 15 16 17 16 15 14 14 14 15 14 13 14 14 15 17 18 18 17 15 13 12 11 10 8 8 7 7 7 7 8 8 9 10 10 10 9 9 8 8 9 11 11 12 13 14 16 17 18 18 18 18 19 19 19 20 20 19 20 22 23 22 22 20 19 18
7 8 8 7 7 6 7 7 8 8 8 9 10 11 12 12 13 14 15 15 14 15 16 15 15 15 14 15 15 14 14 14 15 16 17 18 17 15 13 12 11 10 9 7 6 6 6 6 7 8 8 9 9 9 8 8 8 8 8 8 9 9 10 11 13 14 15 16 16 16 17 17 18 18 19 20 20 20 22 22 22 22 22 21 21
8 9 8 8 8 7 8 9 9 9 10 10 10 11 12 13 14 14 14 15 15 15 15 15 15 15 15 15 15 15 15 15 16 17 18 17 16 13 11 11 10 9 7 6 5 5 5 5 6 7 7 8 8 7 7 7 7 6 7 8 8 8 9 11 11 13 14 14 14 15 15 16 16 17 18 19 19 20 21 22 23 23 23 23 22
8 9 9 8 8 9 10 10 10 10 11 11 11 12 12 14 15 14 14 15 15 15 16 15 15 16 16 16 16 15 16 16 17 17 17 16 13 12 10 10 9 7 6 5 5 4 4 5 5 6 7 7 7 6 7 7 6 6 6 7 7 8 8 9 10 11 12 12 12 13 13 14 14 15 17 18 19 20 21 22 23 24 24 24 23
9 9 9 8 9 11 11 10 10 10 11 11 11 12 13 14 15 15 15 16 15 16 16 17 17 17 17 16 16 16 17 17 17 17 16 14 12 11 10 9 8 7 6 5 5 4 4 4 4 5 6 7 7 7 7 7 6 6 7 7 7 7 7 8 9 9 10 10 10 11 12 12 13 14 15 17 18 19 20 21 22 23 24 25 25
10 10 9 8 9 12 12 10 10 10 11 12 12 12 14 15 16 16 17 17 17 17 17 18 18 17 17 17 17 17 17 17 16 16 15 13 11 10 9 7 6 6 5 5 5 5 4 4 3 4 5 6 6 7 7 6 6 6 7 7 7 8 8 8 8 8 10 10 9 9 10 11 11 13 14 16 16 17 18 19 20 22 23 24 25
11 11 9 8 10 12 13 11 11 11 12 12 12 12 14 15 16 18 18 19 19 19 19 18 18 18 17 17 17 17 16 16 16 15 14 12 11 9 8 6 5 5 4 4 5 5 4 3 3 3 4 5 6 6 6 5 4 5 6 7 8 8 8 8 8 9 10 10 10 9 9 9 10 11 13 14 15 16 16 17 18 20 21 23 24
11 11 10 8 9 12 13 13 12 13 12 12 12 13 14 15 17 18 19 20 20 20 19 19 18 18 18 18 17 16 16 16 15 14 13 11 10 8 7 6 5 4 4 4 5 5 4 3 2 2 4 5 5 5 6 4 3 4 5 7 8 8 8 9 9 10 11 11 11 10 8 9 10 11 12 13 14 15 15 16 17 18 19 21 22
11 11 10 9 9 10 13 14 14 14 13 13 13 13 14 15 16 18 20 20 20 20 20 20 19 19 19 18 17 16 16 15 14 13 11 10 9 7 6 5 4 4 4 5 5 6 5 3 2 1 3 4 5 5 5 4 2 4 5 7 8 8 8 9 9 10 10 10 10 10 9 9 9 10 11 11 12 13 14 15 15 17 18 19 20
11 11 10 10 9 10 12 14 15 16 15 15 14 14 15 16 17 18 20 20 20 20 20 20 19 19 18 17 16 16 15 15 13 12 10 9 8 6 4 4 4 4 4 4 5 6 6 5 3 0 2 3 4 4 4 3 2 3 4 6 7 8 8 7 8 9 9 10 10 10 9 8 8 9 10 10 11 12 12 13 14 15 16 17 18
11 12 10 10 10 10 12 14 15 17 17 16 16 15 16 17 18 18 19 19 20 20 20 20 19 18 17 16 15 15 14 13 12 11 9 8 6 5 4 4 4 4 3 3 4 5 5 5 4 1 2 3 4 4 4 2 1 2 3 4 6 7 7 6 7 8 8 9 9 9 9 8 7 7 9 10 11 11 11 12 12 13 14 16 17
11 12 12 11 11 11 13 15 16 18 19 18 17 17 17 18 19 19 19 19 20 20 20 19 17 16 16 15 14 14 13 11 10 9 7 6 6 5 5 5 4 3 2 2 2 3 4 5 4 2 2 3 4 5 3 1 0 1 1 2 3 5 5 5 6 6 6 7 7 8 8 8 8 7 8 9 10 11 11 11 12 12 12 14 15
12 13 13 13 13 13 14 16 17 19 20 21 19 18 19 19 20 20 19 20 20 20 19 18 16 16 15 14 13 12 11 10 9 8 7 6 6 5 5 5 3 2 2 2 2 2 3 4 3 2 2 3 4 5 4 1 0 1 1 1 1 2 3 4 4 5 5 5 5 6 6 7 7 7 7 8 9 11 11 11 12 12 11 12 14
13 13 14 14 15 15 15 17 18 19 20 21 20 19 20 20 20 19 19 19 20 20 18 17 15 15 14 13 12 11 10 9 9 8 7 6 6 5 5 5 3 2 2 2 1 1 2 3 3 3 2 3 4 6 4 1 1 2 2 2 1 1 2 3 3 3 3 3 4 4 4 4 5 5 6 6 7 9 10 11 12 12 11 11 12
15 15 15 15 17 17 16 17 19 20 20 19 19 19 18 18 19 19 18 18 18 18 16 15 14 14 13 12 10 10 10 9 8 8 7 6 6 5 5 4 3 3 3 2 1 1 1 2 3 3 2 3 5 5 3 1 2 2 2 2 1 1 1 2 2 2 2 2 2 2 2 3 4 4 4 4 5 6 8 10 11 11 11 10 11
16 16 15 15 17 18 18 17 18 19 19 18 18 17 16 16 16 17 17 17 16 16 15 14 13 13 12 11 10 10 9 9 8 7 6 6 6 6 6 4 2 2 2 1 1 1 2 2 2 3 2 3 4 4 2 2 2 1 2 2 1 1 1 2 2 2 2 1 1 1 1 3 4 4 4 5 5 5 6 8 9 10 11 10 10
17 17 17 17 18 19 20 19 18 18 19 18 17 16 15 15 15 15 15 15 15 15 15 14 13 13 12 11 10 10 9 9 8 7 6 6 6 6 5 4 2 2 2 1 1 1 2 3 2 2 2 2 3 3 3 3 1 1 2 2 2 1 1 2 3 3 2 3 4 3 2 3 4 4 5 5 5 5 5 6 8 9 9 10 9
18 18 18 18 18 19 20 20 19 18 18 18 18 17 16 15 16 16 16 15 15 15 15 15 14 13 13 12 11 10 10 10 9 8 7 6 6 6 5 3 2 2 1 1 2 1 2 3 3 1 1 1 1 2 3 2 1 2 2 1 1 1 2 3 5 4 3 4 5 4 3 3 4 3 5 5 4 4 4 5 6 7 8 8 8
18 18 19 18 17 18 20 20 19 19 19 18 18 17 16 16 16 17 17 17 16 16 16 15 15 14 13 12 11 10 10 10 8 7 7 6 5 5 4 4 3 2 2 2 2 2 2 3 3 2 1 0 1 2 2 2 2 2 2 1 1 1 2 2 3 3 3 4 3 3 3 3 3 4 5 5 3 3 4 4 5 6 6 6 6
18 18 19 19 18 18 19 20 20 20 19 19 18 18 17 17 17 17 17 17 17 16 15 15 14 13 12 11 11 10 10 9 8 7 7 6 5 5 4 4 3 3 3 3 3 3 3 3 3 3 2 1 1 1 0 1 1 2 2 1 1 1 2 1 2 3 3 3 2 2 3 2 2 3 4 4 3 2 3 3 4 5 5 5 5
19 18 19 19 19 18 19 19 19 20 20 19 19 18 18 18 18 17 16 16 15 14 13 13 12 12 12 11 10 10 10 9 8 8 7 6 6 5 5 4 4 3 3 4 3 3 4 3 3 3 2 1 1 1 0 0 1 1 2 2 1 1 1 1 1 2 3 3 2 2 2 2 2 2 3 4 3 2 2 1 2 3 4 5 6
20 18 18 20 20 19 20 20 19 19 20 19 19 18 18 19 19 18 17 15 13 12 11 11 11 11 11 11 10 10 9 9 9 8 7 7 6 5 5 5 4 4 4 4 4 3 4 4 4 4 3 2 1 1 1 1 1 1 1 2 1 1 1 2 1 1 2 2 3 2 2 1 2 2 3 4 3 1 2 2 1 2 3 5 6
22 19 18 19 21 21 21 21 20 20 19 19 18 18 18 19 20 18 17 15 13 12 11 10 10 10 10 10 10 10 10 10 9 8 8 7 7 6 6 6 5 5 5 5 4 3 4 4 4 5 4 3 2 1 1 1 1 1 1 2 2 2 2 2 1 1 2 3 3 3 3 2 3 3 4 4 3 3 4 4 3 2 3 4 5
24 22 21 20 21 22 22 22 21 20 19 19 19 18 18 19 20 19 17 15 14 13 12 11 10 10 11 11 11 11 11 10 10 9 8 8 8 7 7 7 7 6 5 5 5 4 5 5 4 5 5 4 3 3 3 2 2 1 1 2 2 2 2 1 1 1 2 2 2 2 2 2 3 3 4 5 4 4 5 5 4 4 3 4 5
Wind_Direction
161 158 156 150 148 153 146 140 140 141 138 140 141 139 134 124 122 119 119 116 113 111 108 104 103 102 102 102 101 101 105 110 113 116 116 113 112 111 107 104 102 99 99 100 100 99 97 94 91 90 88 87 87 85 81 80 82 84 86 89 90 86 82 79 76 74 71 68 64 62 61 60 58 55 53 60 67 67 67 74 77 77 82 83 82
160 159 156 152 152 154 146 142 142 144 138 138 145 144 142 134 125 121 118 115 114 112 108 104 103 103 102 101 98 97 102 111 115 116 114 113 113 111 107 104 103 101 101 101 100 98 96 94 92 91 88 87 87 85 80 77 78 81 85 88 90 90 87 83 80 76 72 68 65 65 66 66 64 61 54 52 58 63 68 76 82 81 77 74 75
161 160 157 155 154 151 146 146 142 142 135 134 145 145 145 143 137 133 126 119 117 115 110 106 107 106 105 102 98 98 103 109 112 113 113 114 113 109 107 105 105 105 103 101 99 98 96 95 94 92 88 85 84 82 76 73 72 73 77 84 87 88 87 85 84 81 77 73 69 67 66 66 65 66 64 60 56 56 66 75 87 90 84 85 88
165 161 159 157 154 150 147 149 141 140 136 134 142 143 143 142 137 134 131 126 121 117 113 111 112 109 107 104 101 101 104 107 109 110 112 113 112 109 108 107 107 106 105 102 101 99 96 94 92 89 87 83 81 79 74 70 68 68 70 76 79 80 81 81 83 81 78 73 67 64 64 63 60 61 63 64 62 58 59 64 79 93 97 104 105
167 165 161 157 155 152 148 148 143 145 140 135 139 138 135 132 125 122 127 127 121 120 120 118 115 110 107 104 101 103 106 109 110 110 112 113 112 111 109 109 108 107 105 103 102 99 96 94 90 86 84 82 80 78 72 67 65 65 66 69 71 72 76 77 78 77 73 68 62 61 60 60 59 57 58 61 62 61 59 59 63 74 91 105 106
168 165 162 157 153 152 151 150 148 149 142 138 139 138 135 131 126 123 126 126 124 124 122 120 116 111 108 106 104 105 109 113 113 110 112 114 113 112 109 108 108 108 107 104 102 98 97 96 91 87 85 82 78 75 70 66 65 65 65 66 66 67 69 71 71 70 68 65 60 56 53 51 55 56 58 57 55 57 57 56 59 67 83 98 99
166 162 160 155 151 153 153 151 150 146 139 138 138 139 137 134 131 129 129 127 126 124 120 117 114 112 110 110 110 108 110 115 117 112 111 115 114 112 109 107 107 108 107 105 103 100 99 96 91 90 86 82 78 74 71 68 65 64 62 62 63 64 64 65 66 65 64 61 57 54 48 44 50 55 57 59 56 55 56 56 55 62 71 84 90
164 161 158 153 151 154 152 150 150 145 138 138 137 134 131 130 130 129 128 125 124 122 118 114 115 115 113 112 114 113 112 116 120 117 112 114 116 112 110 109 109 109 107 106 105 102 100 97 92 88 85 81 77 74 73 69 64 61 59 61 62 63 63 63 63 63 63 60 55 51 49 44 47 53 53 59 59 55 57 59 57 59 64 69 76
163 161 157 153 153 153 150 147 149 146 143 143 140 136 130 128 126 125 125 124 122 120 115 113 116 117 116 115 117 119 117 116 119 121 114 113 116 113 111 110 111 109 108 109 107 102 99 97 92 89 85 81 78 76 74 69 63 61 62 63 63 62 62 61 60 61 62 61 58 52 54 51 45 47 46 50 54 53 55 59 61 60 65 68 71
162 160 156 153 153 151 148 147 147 143 138 135 134 135 135 134 129 125 125 125 123 121 118 115 116 115 117 120 122 123 122 118 117 124 122 114 115 115 113 111 110 110 111 113 110 104 98 95 90 88 86 81 77 76 74 68 64 64 63 63 62 60 59 58 57 58 60 59 61 57 60 65 50 37 34 39 43 48 54 59 66 67 69 73 75
161 159 156 152 151 148 148 146 140 133 128 129 130 131 135 141 138 136 136 131 128 126 124 120 119 117 119 123 123 124 121 118 116 124 127 119 115 116 115 113 114 114 114 114 113 107 101 95 90 85 81 79 76 74 73 70 67 66 63 60 58 57 57 55 54 54 56 56 60 59 61 69 60 38 28 28 30 35 40 46 61 67 71 71 70
159 157 154 150 148 147 146 141 136 132 132 136 140 142 143 146 144 147 147 139 136 133 129 124 123 119 121 124 123 122 120 118 118 125 127 121 117 117 117 117 118 115 114 114 112 107 100 96 90 85 82 83 80 77 78 76 71 66 60 57 54 53 53 52 51 49 52 54 58 60 63 69 63 56 49 26 17 17 15 15 37 52 65 70 67
157 155 152 145 146 148 146 143 146 143 145 153 156 160 158 152 147 152 151 145 146 141 134 127 127 126 125 127 124 121 119 120 123 127 127 122 120 121 121 119 117 115 114 112 111 106 100 97 92 88 87 86 83 82 83 80 72 64 57 51 48 47 47 47 48 47 48 51 55 57 61 67 62 68 76 55 34 14 6 356 358 16 42 58 68
155 154 151 145 145 149 151 151 155 154 159 169 168 169 171 167 158 157 153 148 151 149 141 137 137 132 130 129 124 121 118 122 127 128 126 122 123 124 122 118 113 114 115 112 109 105 100 97 94 93 92 92 91 88 83 78 70 64 57 49 43 42 43 43 44 45 46 48 52 53 53 55 51 60 74 91 197 269 310 322 327 335 345 357 1
155 154 150 145 146 150 158 163 169 173 175 179 175 176 179 178 168 163 157 155 158 155 150 148 144 136 135 131 125 124 119 125 129 129 126 123 124 125 122 116 112 113 115 112 109 106 102 97 94 96 96 98 99 94 83 74 68 62 57 53 44 40 42 42 41 43 45 46 51 53 53 51 51 59 62 64 253 257 264 275 285 298 310 318 315
157 153 148 144 153 160 169 175 183 187 187 188 184 186 185 181 177 169 161 165 168 159 157 157 147 139 139 133 131 128 123 129 133 131 127 124 124 124 122 117 114 115 115 113 111 109 103 96 96 99 99 101 102 95 82 71 65 59 56 52 46 42 41 41 41 43 46 49 53 56 58 59 59 62 62 60 52 29 349 334 321 313 310 305 304
155 149 149 153 165 170 177 184 190 195 199 202 199 197 192 184 179 172 164 167 167 161 162 161 148 142 143 137 134 131 129 136 137 133 127 123 122 122 120 118 116 117 117 115 112 108 101 99 101 103 102 101 98 89 77 68 61 56 53 49 44 41 39 40 42 45 51 56 59 61 64 64 62 63 63 61 56 53 50 41 30 15 358 334 322
152 153 162 167 174 178 183 192 199 207 213 215 215 207 195 185 176 171 174 168 162 162 163 162 150 144 148 141 136 136 136 143 144 137 129 124 122 122 120 119 119 120 120 117 114 107 102 104 106 106 102 97 90 81 71 64 58 53 50 47 42 39 39 43 46 51 61 65 65 66 68 66 63 64 64 61 57 56 54 48 40 35 32 27 23
158 167 176 175 180 186 189 199 207 213 218 218 218 216 189 172 174 173 180 174 162 161 162 163 152 147 153 145 141 142 142 149 149 139 132 127 125 124 124 123 122 122 121 118 114 108 107 109 109 105 98 91 84 75 65 59 54 49 47 45 42 40 41 45 51 61 70 72 72 72 70 68 65 63 61 56 54 53 49 44 39 32 23 21 18
176 178 179 182 185 189 192 202 211 215 217 216 212 217 190 165 172 174 176 172 162 161 164 162 153 150 153 147 146 146 145 152 149 138 132 128 129 129 130 130 126 125 121 116 111 110 112 109 104 100 94 87 78 69 62 57 51 46 46 45 44 42 43 48 61 72 77 78 78 76 72 69 66 62 56 50 48 48 46 40 41 37 17 12 7
188 183 179 187 189 190 197 202 207 213 214 215 207 210 201 171 165 166 169 165 159 164 167 161 154 153 152 149 150 148 148 155 152 137 129 130 134 131 131 131 127 124 118 114 112 112 112 105 100 96 91 83 73 65 59 55 51 48 47 46 46 45 48 59 71 78 81 81 80 77 73 69 65 62 57 50 47 45 45 41 41 37 13 7 4
187 186 183 184 186 191 197 200 199 201 204 209 195 185 187 175 165 164 167 163 161 165 165 160 157 156 156 154 151 152 154 159 152 134 128 134 132 127 128 127 124 120 116 115 115 115 111 104 99 93 86 75 65 61 58 56 53 52 49 47 48 51 59 70 77 80 82 82 79 76 73 68 63 61 57 52 52 51 49 40 31 28 9 2 1
181 186 188 182 185 192 192 194 196 187 192 197 174 165 170 166 161 165 169 162 160 164 162 159 156 156 158 153 152 156 158 158 148 135 134 134 128 126 126 125 123 119 117 119 118 116 110 102 95 87 78 65 59 58 58 57 56 56 56 55 56 62 71 77 81 82 81 80 78 76 74 70 64 60 55 50 52 57 59 47 29 22 7 355 356
183 185 192 190 188 190 187 187 190 175 178 176 161 161 158 155 155 162 167 159 158 164 162 158 154 154 155 151 153 158 157 152 143 137 136 130 125 125 125 125 123 121 122 123 121 117 108 98 90 82 70 58 53 55 57 58 60 64 67 69 70 76 80 82 82 81 79 78 78 77 75 72 66 60 55 51 50 53 60 55 33 20 6 351 351
185 187 191 194 190 186 178 170 173 170 168 156 155 156 148 149 153 159 163 156 159 163 161 159 155 154 153 151 154 155 153 146 140 138 134 128 125 125 127 127 125 124 126 126 124 117 107 97 86 76 65 57 55 59 62 63 69 78 81 78 78 81 82 81 80 78 77 75 75 74 74 71 67 62 56 52 49 49 52 54 48 35 20 9 7
188 188 186 190 190 181 166 165 170 167 160 150 152 153 146 145 144 153 160 155 157 161 160 159 154 152 152 151 153 153 149 143 137 135 131 127 127 128 129 128 126 129 130 129 125 115 105 94 83 75 66 64 67 68 69 70 77 87 88 83 79 79 78 77 76 74 74 72 71 70 70 68 67 63 57 52 50 48 48 50 54 55 45 35 30
190 186 185 189 187 175 166 168 170 160 150 146 149 149 143 139 138 146 155 152 155 159 158 154 150 151 151 150 150 149 145 139 135 133 132 131 130 131 131 129 131 135 135 131 124 114 102 91 83 79 73 75 77 76 73 71 77 87 89 82 76 75 74 74 72 72 71 70 68 66 66 64 64 63 59 56 52 49 48 47 49 54 56 53 46
187 185 183 185 182 175 169 161 157 151 143 142 144 144 139 136 137 142 148 149 151 155 153 148 148 150 148 148 147 145 141 137 135 135 135 134 134 135 134 136 140 142 141 133 124 113 99 91 88 84 80 82 84 81 76 75 78 85 88 79 73 71 71 71 69 70 70 69 68 65 64 62 61 61 60 59 56 52 50 48 47 49 54 55 53
183 184 180 177 175 170 162 150 147 144 141 142 139 139 137 136 137 140 145 145 146 149 147 147 150 148 147 147 144 142 141 138 137 138 139 138 138 139 140 145 149 150 146 136 128 117 101 95 92 87 81 83 86 80 77 78 78 81 83 78 74 71 71 70 67 68 69 71 70 66 63 61 60 60 61 60 59 56 53 52 49 48 50 52 53
177 179 175 168 163 157 149 141 142 141 140 140 137 137 137 137 137 140 144 143 145 147 146 149 149 146 146 145 143 143 143 141 140 141 143 143 143 144 147 152 155 156 153 146 139 126 110 102 95 88 81 81 82 78 77 76 72 75 78 77 76 73 72 70 67 65 66 70 72 69 65 63 63 62 63 63 61 59 56 54 52 49 48 49 51
171 173 168 158 153 148 142 138 139 142 141 138 137 137 136 137 136 138 143 144 145 145 145 146 145 145 145 144 144 146 144 142 143 145 147 147 147 150 154 156 159 161 160 158 151 138 126 111 98 88 80 75 74 73 71 71 73 75 75 74 74 72 70 68 64 62 62 66 70 71 68 66 67 67 67 67 65 62 59 55 53 51 49 48 48
165 168 165 154 151 148 142 140 142 144 142 138 137 137 137 138 136 138 141 142 142 142 142 143 143 144 144 145 146 146 145 145 146 149 151 151 151 153 156 158 160 164 166 165 160 153 141 121 101 90 76 67 64 62 60 69 81 82 78 75 71 69 67 67 65 62 62 64 69 71 70 69 72 74 73 72 69 66 62 58 54 51 49 47 47
164 166 164 153 151 149 144 143 145 146 143 140 139 139 139 139 137 139 139 138 139 139 141 142 143 144 145 147 147 146 147 147 150 153 155 154 156 160 162 162 164 168 171 169 168 164 150 129 104 85 66 56 55 51 50 63 84 85 79 71 68 69 68 70 71 69 67 66 67 70 71 73 77 80 79 76 72 67 63 59 56 53 49 48 46
167 166 162 153 151 149 146 145 149 148 144 144 143 141 142 142 140 140 139 138 139 139 142 144 144 145 146 148 147 147 147 149 152 154 157 159 163 169 171 174 178 180 182 182 180 178 163 141 111 77 55 45 47 49 49 59 83 83 75 70 69 69 72 75 76 76 74 70 69 71 73 78 82 86 83 77 70 64 60 58 56 53 50 48 46
173 166 161 155 151 149 148 149 153 150 145 145 145 145 145 144 145 143 141 140 141 143 144 145 145 146 147 147 147 147 149 151 154 156 160 164 168 173 175 177 183 187 195 204 202 196 185 163 133 78 43 33 40 42 42 55 83 85 78 75 70 69 75 79 80 79 77 73 69 70 77 85 88 87 82 74 67 60 57 55 54 52 50 48 45
176 167 164 160 153 151 150 152 155 152 148 147 146 148 147 147 148 147 144 143 144 145 146 145 145 146 147 148 149 150 153 156 158 160 164 166 167 165 169 177 183 189 200 214 216 212 206 192 169 88 30 24 32 27 31 49 86 95 84 75 69 71 75 77 80 78 75 72 68 68 77 90 92 83 74 67 62 56 53 52 52 51 50 48 46
181 172 168 164 158 154 154 154 156 153 150 150 148 149 149 147 149 149 146 145 146 147 146 145 146 148 150 151 153 154 157 160 162 166 168 166 164 164 176 190 192 193 198 211 218 220 220 212 204 135 20 16 21 18 22 29 77 100 83 74 71 72 76 79 83 79 73 70 67 67 74 89 93 76 64 58 54 53 51 49 49 49 49 49 46
186 178 172 169 164 159 157 155 154 152 150 150 148 147 147 145 147 149 148 146 147 148 147 147 149 151 154 155 157 158 160 164 167 170 169 165 168 177 183 181 178 180 184 192 200 212 213 209 216 252 11 10 8 5 2 1 69 98 77 80 79 73 77 83 85 80 75 71 68 69 72 82 86 71 61 56 53 53 52 50 48 46 47 47 46
191 183 178 174 171 165 161 158 155 152 150 150 148 147 148 147 148 150 150 151 151 152 152 152 153 155 157 158 159 160 163 167 170 168 166 168 175 179 172 165 167 170 162 155 166 183 193 202 225 266 352 7 356 353 348 320 127 74 65 80 74 69 76 85 85 78 75 74 73 73 73 72 73 69 64 58 56 54 54 54 52 48 44 43 43
196 187 182 179 176 171 166 162 157 155 152 152 151 152 153 153 154 156 156 156 156 157 158 157 158 159 160 162 161 162 164 166 166 163 166 171 172 167 162 162 161 150 131 127 141 154 179 206 233 256 328 356 346 348 346 269 210 12 353 7 19 74 87 92 89 81 79 80 77 74 73 69 64 63 62 58 54 54 54 55 55 53 48 41 39
198 191 186 182 178 176 172 167 162 160 158 157 156 156 158 157 157 159 160 160 160 161 163 162 162 163 163 164 165 166 167 165 162 161 165 168 165 159 160 160 146 125 106 103 122 126 165 211 233 242 295 339 335 342 347 303 298 321 324 325 291 171 115 107 98 90 90 86 80 68 60 59 51 43 46 47 45 47 50 50 52 54 54 47 38
197 193 189 184 180 179 177 172 169 167 165 164 163 161 161 161 159 159 160 162 163 164 165 165 164 165 166 167 169 172 171 168 164 162 164 164 161 161 164 159 132 104 93 91 102 104 138 196 224 240 278 313 318 331 351 1 314 304 338 341 247 195 140 129 120 119 121 109 89 59 35 29 24 18 17 21 26 33 40 44 47 50 55 55 44
199 195 191 188 184 182 181 179 177 173 172 171 169 166 165 164 162 161 162 163 164 165 166 168 169 170 172 174 176 178 176 174 170 166 165 165 163 164 168 162 131 101 95 102 106 105 138 166 204 240 284 312 313 318 337 1 332 344 33 35 105 114 197 179 164 175 189 209 253 313 330 340 353 4 7 2 360 11 28 37 42 46 51 56 53
201 197 193 192 189 186 184 183 182 180 178 176 173 170 168 167 166 166 166 167 168 169 170 173 176 177 179 181 182 182 180 177 174 171 168 167 166 167 172 170 155 130 107 151 170 129 162 160 173 233 296 339 324 315 328 345 351 28 35 55 73 59 274 271 288 279 266 275 281 279 278 304 325 353 9 0 345 354 15 27 36 42 47 53 54
201 199 196 196 193 189 187 186 186 185 183 181 179 177 177 176 172 172 175 176 178 178 178 178 179 181 182 183 184 186 184 178 173 171 168 169 171 173 180 185 188 183 151 190 188 162 174 162 153 185 330 1 357 352 354 5 41 40 34 70 65 358 302 302 307 306 304 309 298 270 257 286 308 335 1 1 349 359 14 21 33 39 45 50 50
200 201 200 199 197 193 190 189 188 187 186 185 183 183 186 186 183 182 182 183 185 186 184 182 181 181 182 182 183 185 182 175 173 171 169 174 179 181 186 191 197 204 206 202 189 181 182 168 157 142 91 75 106 56 25 38 68 47 43 77 92 338 326 305 309 318 317 326 315 270 271 299 313 327 348 0 357 8 21 26 34 36 41 47 45
199 200 202 202 201 197 194 193 191 190 190 189 188 188 189 192 192 190 187 186 187 187 185 184 183 181 183 183 183 183 180 176 176 178 179 181 185 187 191 196 202 207 206 200 194 196 195 182 173 151 122 138 112 81 33 40 48 43 45 55 59 4 345 301 302 324 328 339 327 284 304 315 320 336 359 11 357 351 16 34 39 34 34 37 35
199 199 201 202 202 200 197 197 195 193 193 193 194 192 192 193 194 193 190 188 187 186 186 187 186 186 187 187 187 187 186 185 185 190 192 190 191 193 195 202 210 211 201 200 204 205 203 200 192 176 154 143 118 121 216 348 7 24 33 27 21 18 13 353 312 326 332 336 325 295 303 310 330 354 8 1 340 326 354 15 43 36 27 23 24
202 200 200 201 202 200 200 200 200 198 196 197 198 197 195 194 195 194 192 189 187 188 191 193 195 194 193 194 196 196 195 195 195 199 201 198 198 199 203 209 215 215 207 205 211 215 212 209 207 200 187 174 159 153 183 240 285 307 340 343 339 345 11 10 348 347 334 325 323 307 288 320 342 330 335 340 331 317 329 316 327 15 13 12 18
205 203 201 201 201 200 201 202 203 202 200 200 200 202 200 196 196 196 193 190 188 190 196 201 205 206 204 203 205 204 203 203 202 204 204 204 205 207 211 215 218 216 209 209 217 224 221 215 217 215 206 199 207 219 218 234 266 280 294 300 304 305 328 359 1 345 328 319 314 297 278 314 340 328 334 345 335 327 335 326 324 335 341 356 10
207 204 203 202 201 201 202 203 205 205 204 203 202 203 204 201 198 197 195 194 193 196 200 204 210 215 215 212 211 211 209 208 207 208 208 208 211 214 216 219 223 221 211 214 223 227 223 222 226 226 222 220 222 232 240 248 263 277 300 295 293 291 292 315 312 286 317 327 329 312 280 302 326 329 333 338 330 327 330 322 320 327 324 341 356